#timestamp,LO_Frequency,Hit 
1501218015.6,286046997.4,N
1501218035.5,286046999.6,N
1501218055.3,286046999.4,N
1501218075.1,286046996.7,N
1501218095.8,286046997.5,N
1501218115.7,286046999.4,N
1501218135.5,286047002.5,N
1501218155.3,286046998.1,N
1501218175.2,286046998.1,N
1501218195.9,286047002.6,N
1501218215.7,286047002.3,N
1501218235.6,286047002.7,N
1501218255.4,286046999.7,N
1501218275.2,286047001.7,N
1501218295.1,286047001.5,N
1501218296.0,286047001.5,N
1501218315.8,286047001.5,N
1501218335.6,286047005.8,N
1501218355.4,286047004.2,N
1501218375.3,286047001.7,N
1501218395.1,286047002.3,N
1501218415.8,286047003.0,N
1501218435.7,286047003.9,N
1501218455.5,286047003.1,N
1501218475.3,286047001.7,N
1501218495.2,286047001.4,N
1501218515.9,286047002.7,N
1501218535.7,286047001.1,N
1501218555.6,286046997.6,N
1501218575.4,286046998.7,N
1501218595.2,286047000.3,N
1501218615.0,286047002.0,N
1501218615.9,286047002.0,N
1501218635.8,286047002.2,N
1501218655.6,286047004.2,N
1501218675.4,286047005.5,N
1501218695.3,286047004.2,N
1501218715.1,286047003.9,N
1501218735.8,286047003.7,N
1501218755.7,286047004.9,N
1501218775.5,286047007.2,N
1501218795.3,286047005.4,N
1501218815.2,286047003.2,N
1501218835.9,286047002.8,N
1501218855.7,286047001.9,N
1501218875.5,286046999.9,N
1501218895.4,286047002.7,N
1501218915.2,286047001.5,N
1501218935.0,286047002.1,N
1501218935.9,286047002.1,N
1501218955.8,286047003.3,N
1501218975.6,286047003.6,N
1501218995.4,286047002.6,N
1501219015.3,286047001.9,N
1501219035.1,286047001.9,N
1501219036.0,286047001.9,N
1501219055.8,286047001.5,N
1501219075.7,286047002.5,N
1501219095.5,286047000.0,N
1501219115.3,286046999.8,N
1501219135.1,286046998.9,N
1501219155.9,286046998.6,N
1501219175.7,286047001.8,N
1501219195.5,286046999.3,N
1501219215.4,286046998.0,N
1501219235.2,286046996.3,N
1501219255.0,286046997.5,N
1501219255.9,286046997.5,N
1501219275.8,286046999.3,N
1501219295.6,286046998.1,N
1501219315.4,286046999.7,N
1501219335.3,286047001.6,N
1501219355.1,286047004.0,N
1501219356.0,286047004.0,N
1501219375.8,286047003.9,N
1501219395.6,286047003.5,N
1501219415.5,286047001.4,N
1501219435.3,286047002.5,N
1501219455.1,286047004.1,N
1501219475.9,286047001.9,N
1501219495.7,286046999.7,N
1501219515.5,286046999.9,N
1501219535.4,286047002.6,N
1501219555.2,286047000.5,N
1501219575.0,286047001.5,N
1501219575.9,286047001.5,N
1501219595.8,286047001.6,N
1501219615.6,286047002.5,N
1501219635.4,286047002.6,N
1501219655.3,286047003.7,N
1501219675.1,286047005.5,N
1501219676.0,286047005.5,N
1501219695.8,286047002.6,N
1501219715.6,286047002.4,N
1501219735.5,286046999.9,N
1501219755.3,286047002.3,N
1501219775.1,286046999.8,N
1501219795.9,286046999.0,N
1501219815.7,286046998.2,N
1501219835.5,286047000.1,N
1501219855.4,286047002.4,N
1501219875.2,286047001.9,N
1501219895.0,286047006.0,N
1501219895.9,286047006.0,N
1501219915.8,286047003.3,N
1501219935.6,286047004.9,N
1501219955.4,286047007.6,N
1501219975.2,286047005.3,N
1501219995.1,286047003.6,N
1501219996.0,286047003.6,N
1501220015.8,286046999.9,N
1501220035.6,286046998.2,N
1501220055.5,286047000.6,N
1501220075.3,286046998.3,N
1501220095.1,286047000.7,N
1501220115.9,286047000.9,N
1501220135.7,286047000.5,N
1501220155.5,286047001.9,N
1501220175.4,286047000.0,N
1501220195.2,286046999.8,N
1501220215.0,286047002.0,N
1501220215.9,286047002.0,N
1501220235.7,286047002.2,N
1501220255.6,286047002.2,N
1501220275.4,286047002.8,N
1501220295.2,286047001.6,N
1501220315.1,286047001.5,N
1501220316.0,286047001.5,N
1501220335.8,286047001.5,N
1501220355.6,286047002.8,N
1501220375.5,286047000.5,N
1501220395.3,286047000.6,N
1501220415.1,286047000.9,N
1501220435.9,286047002.8,N
1501220455.7,286047001.5,N
1501220475.5,286047000.5,N
1501220495.3,286046998.2,N
1501220515.2,286047002.8,N
1501220535.0,286047002.5,N
1501220535.9,286047002.5,N
1501220555.7,286047003.2,N
1501220575.6,286047005.3,N
1501220595.4,286047003.0,N
1501220615.2,286047005.3,N
1501220635.1,286047003.4,N
1501220636.0,286047003.4,N
1501220655.8,286047003.4,N
1501220675.6,286047001.3,N
1501220695.5,286047004.1,N
1501220715.3,286047004.2,N
1501220735.1,286047001.8,N
1501220755.9,286046999.7,N
1501220775.7,286047002.7,N
1501220795.5,286047000.7,N
1501220815.3,286046998.2,N
1501220835.2,286047002.6,N
1501220855.0,286047003.5,N
1501220855.9,286047003.5,N
1501220875.7,286047003.2,N
1501220895.6,286047001.8,N
1501220915.4,286047003.5,N
1501220935.2,286047005.4,N
1501220955.1,286047005.5,N
1501220956.0,286047005.5,N
1501220975.8,286047003.0,N
1501220995.6,286047001.8,N
1501221015.5,286046998.3,N
1501221035.3,286047000.7,N
1501221055.1,286047002.7,N
1501221075.8,286047001.3,N
1501221095.7,286047001.4,N
1501221115.5,286047001.3,N
1501221135.3,286047003.6,N
1501221155.2,286047003.6,N
1501221175.9,286047004.2,N
1501221195.7,286047003.8,N
1501221215.6,286047003.8,N
1501221235.4,286047003.5,N
1501221255.2,286047003.8,N
1501221275.1,286047001.4,N
1501221276.0,286047001.4,N
1501221295.8,286047004.1,N
1501221315.6,286047000.1,N
1501221335.4,286047002.1,N
1501221355.3,286047005.9,N
1501221375.1,286047005.6,N
1501221395.8,286047004.3,N
1501221415.7,286047006.0,N
1501221435.5,286047007.2,N
1501221455.3,286047003.6,N
1501221475.2,286047001.4,N
1501221495.9,286047001.7,N
1501221515.7,286047002.2,N
1501221535.6,286047003.7,N
1501221555.4,286047005.6,N
1501221575.2,286047005.5,N
1501221595.0,286047005.3,N
1501221595.9,286047005.3,N
